Time,TemperatureF,DewpointF,PressureIn,WindDirection,WindDirectionDegrees,WindSpeedMPH,WindSpeedGustMPH,Humidity,HourlyPrecipIn,Conditions,Clouds,dailyrainin,SoftwareType,DateUTC
2013-05-17 00:00:00,67.3,31.2,29.32,SW,225,0.0,0.0,26,0.00,,,0.00,VWS V13.01,2013-05-17 05:00:00,
2013-05-17 00:05:00,67.1,32.0,29.32,SW,225,0.0,0.0,27,0.00,,,0.00,VWS V13.01,2013-05-17 05:05:00,
2013-05-17 00:10:00,66.9,31.9,29.32,SW,225,0.0,0.0,27,0.00,,,0.00,VWS V13.01,2013-05-17 05:10:00,
2013-05-17 00:15:00,66.9,32.8,29.32,SW,225,0.0,0.0,28,0.00,,,0.00,VWS V13.01,2013-05-17 05:15:00,
2013-05-17 00:20:00,66.7,32.6,29.32,SW,225,0.0,0.0,28,0.00,,,0.00,VWS V13.01,2013-05-17 05:20:00,
2013-05-17 00:25:00,66.7,32.6,29.32,SW,225,0.0,0.0,28,0.00,,,0.00,VWS V13.01,2013-05-17 05:25:00,
2013-05-17 00:30:00,66.7,32.6,29.32,SW,225,0.0,0.0,28,0.00,,,0.00,VWS V13.01,2013-05-17 05:30:00,
2013-05-17 00:35:00,66.7,32.6,29.32,SW,225,0.0,0.0,28,0.00,,,0.00,VWS V13.01,2013-05-17 05:35:00,
2013-05-17 00:41:00,66.7,32.6,29.32,SW,225,0.0,0.0,28,0.00,,,0.00,VWS V13.01,2013-05-17 05:41:00,
2013-05-17 00:46:00,66.7,32.6,29.32,SW,225,0.0,0.0,28,0.00,,,0.00,VWS V13.01,2013-05-17 05:46:00,
2013-05-17 00:51:00,67.1,34.7,29.32,SW,225,0.0,0.0,30,0.00,,,0.00,VWS V13.01,2013-05-17 05:51:00,
2013-05-17 00:56:00,67.3,34.8,29.32,SW,225,0.0,0.0,30,0.00,,,0.00,VWS V13.01,2013-05-17 05:56:00,
2013-05-17 01:01:00,67.1,34.7,29.32,SW,225,0.0,0.0,30,0.00,,,0.00,VWS V13.01,2013-05-17 06:01:00,
2013-05-17 01:06:00,67.3,35.6,29.32,SW,225,0.0,0.0,31,0.00,,,0.00,VWS V13.01,2013-05-17 06:06:00,
2013-05-17 01:11:00,67.1,35.5,29.32,SW,225,0.0,0.0,31,0.00,,,0.00,VWS V13.01,2013-05-17 06:11:00,
2013-05-17 01:16:00,67.1,36.3,29.32,South,180,0.0,0.0,32,0.00,,,0.00,VWS V13.01,2013-05-17 06:16:00,
2013-05-17 01:21:00,67.1,36.3,29.32,South,180,0.0,0.0,32,0.00,,,0.00,VWS V13.01,2013-05-17 06:21:00,
2013-05-17 01:26:00,67.1,37.1,29.32,SE,135,0.0,0.0,33,0.00,,,0.00,VWS V13.01,2013-05-17 06:26:00,
2013-05-17 01:31:00,66.9,36.9,29.32,SE,135,0.0,0.0,33,0.00,,,0.00,VWS V13.01,2013-05-17 06:31:00,
2013-05-17 01:36:00,66.7,36.8,29.32,SE,135,0.0,0.0,33,0.00,,,0.00,VWS V13.01,2013-05-17 06:36:00,
2013-05-17 01:41:00,66.7,37.5,29.32,SE,135,0.0,0.0,34,0.00,,,0.00,VWS V13.01,2013-05-17 06:41:00,
2013-05-17 01:46:00,66.7,37.5,29.29,SE,135,0.0,0.0,34,0.00,,,0.00,VWS V13.01,2013-05-17 06:46:00,
2013-05-17 01:51:00,66.6,37.3,29.29,SE,135,0.0,0.0,34,0.00,,,0.00,VWS V13.01,2013-05-17 06:51:00,
2013-05-17 01:56:00,66.6,38.1,29.29,SE,135,0.0,0.0,35,0.00,,,0.00,VWS V13.01,2013-05-17 06:56:00,
2013-05-17 02:01:00,66.4,37.9,29.32,ESE,112,0.0,0.0,35,0.00,,,0.00,VWS V13.01,2013-05-17 07:01:00,
2013-05-17 02:06:00,66.4,38.6,29.32,ESE,112,0.0,0.0,36,0.00,,,0.00,VWS V13.01,2013-05-17 07:06:00,
2013-05-17 02:11:00,66.2,38.5,29.32,ESE,112,0.0,0.0,36,0.00,,,0.00,VWS V13.01,2013-05-17 07:11:00,
2013-05-17 02:16:00,66.2,38.5,29.32,ESE,112,0.0,0.0,36,0.00,,,0.00,VWS V13.01,2013-05-17 07:16:00,
2013-05-17 02:21:00,66.2,39.2,29.32,ESE,112,0.0,0.0,37,0.00,,,0.00,VWS V13.01,2013-05-17 07:21:00,
2013-05-17 02:26:00,66.0,39.7,29.32,ESE,112,0.0,0.0,38,0.00,,,0.00,VWS V13.01,2013-05-17 07:26:00,
2013-05-17 02:31:00,66.0,39.7,29.29,ESE,112,0.0,0.0,38,0.00,,,0.00,VWS V13.01,2013-05-17 07:31:00,
2013-05-17 02:36:00,66.0,40.4,29.29,ESE,112,0.0,0.0,39,0.00,,,0.00,VWS V13.01,2013-05-17 07:36:00,
2013-05-17 02:41:00,66.0,40.4,29.29,ESE,112,0.0,0.0,39,0.00,,,0.00,VWS V13.01,2013-05-17 07:41:00,
2013-05-17 02:46:00,66.0,41.0,29.29,ESE,112,0.0,0.0,40,0.00,,,0.00,VWS V13.01,2013-05-17 07:46:00,
2013-05-17 02:51:00,66.0,41.0,29.29,ESE,112,0.0,0.0,40,0.00,,,0.00,VWS V13.01,2013-05-17 07:51:00,
2013-05-17 02:56:00,66.0,41.0,29.29,ESE,112,0.0,0.0,40,0.00,,,0.00,VWS V13.01,2013-05-17 07:56:00,
2013-05-17 03:01:00,65.8,41.5,29.29,ESE,112,0.0,0.0,41,0.00,,,0.00,VWS V13.01,2013-05-17 08:01:00,
2013-05-17 03:06:00,65.8,41.5,29.29,ESE,112,0.0,0.0,41,0.00,,,0.00,VWS V13.01,2013-05-17 08:06:00,
2013-05-17 03:11:00,65.8,41.5,29.29,ESE,112,0.0,0.0,41,0.00,,,0.00,VWS V13.01,2013-05-17 08:11:00,
2013-05-17 03:16:00,65.8,42.1,29.29,ESE,112,0.0,0.0,42,0.00,,,0.00,VWS V13.01,2013-05-17 08:16:00,
2013-05-17 03:21:00,65.8,42.1,29.29,ESE,112,0.0,0.0,42,0.00,,,0.00,VWS V13.01,2013-05-17 08:21:00,
2013-05-17 03:27:00,65.8,42.7,29.29,ESE,112,0.0,0.0,43,0.00,,,0.00,VWS V13.01,2013-05-17 08:27:00,
2013-05-17 03:32:00,65.8,42.7,29.29,ESE,112,0.0,0.0,43,0.00,,,0.00,VWS V13.01,2013-05-17 08:32:00,
2013-05-17 03:37:00,66.0,42.9,29.29,ESE,112,0.0,0.0,43,0.00,,,0.00,VWS V13.01,2013-05-17 08:37:00,
2013-05-17 03:42:00,66.0,42.9,29.29,ESE,112,0.0,0.0,43,0.00,,,0.00,VWS V13.01,2013-05-17 08:42:00,
2013-05-17 03:47:00,66.2,42.5,29.29,ESE,112,0.0,0.0,42,0.00,,,0.00,VWS V13.01,2013-05-17 08:47:00,
2013-05-17 03:52:00,66.2,42.5,29.29,ESE,112,0.0,0.0,42,0.00,,,0.00,VWS V13.01,2013-05-17 08:52:00,
2013-05-17 03:57:00,66.2,42.5,29.29,ESE,112,0.0,0.0,42,0.00,,,0.00,VWS V13.01,2013-05-17 08:57:00,
2013-05-17 04:02:00,66.2,42.5,29.29,ESE,112,0.0,0.0,42,0.00,,,0.00,VWS V13.01,2013-05-17 09:02:00,
2013-05-17 04:07:00,66.2,43.1,29.29,ESE,112,0.0,0.0,43,0.00,,,0.00,VWS V13.01,2013-05-17 09:07:00,
2013-05-17 04:12:00,66.2,43.1,29.29,ESE,112,0.0,0.0,43,0.00,,,0.00,VWS V13.01,2013-05-17 09:12:00,
2013-05-17 04:17:00,66.2,43.1,29.29,ESE,112,0.0,0.0,43,0.00,,,0.00,VWS V13.01,2013-05-17 09:17:00,
2013-05-17 04:22:00,66.2,43.7,29.29,ESE,112,0.0,0.0,44,0.00,,,0.00,VWS V13.01,2013-05-17 09:22:00,
2013-05-17 04:27:00,66.2,43.7,29.29,ESE,112,0.0,0.0,44,0.00,,,0.00,VWS V13.01,2013-05-17 09:27:00,
2013-05-17 04:32:00,66.2,43.7,29.29,ESE,112,0.0,0.0,44,0.00,,,0.00,VWS V13.01,2013-05-17 09:32:00,
2013-05-17 04:37:00,66.0,44.1,29.29,ESE,112,0.0,0.0,45,0.00,,,0.00,VWS V13.01,2013-05-17 09:37:00,
2013-05-17 04:42:00,66.0,44.1,29.29,ESE,112,0.0,0.0,45,0.00,,,0.00,VWS V13.01,2013-05-17 09:42:00,
2013-05-17 04:47:00,66.0,44.1,29.29,ESE,112,0.0,0.0,45,0.00,,,0.00,VWS V13.01,2013-05-17 09:47:00,
2013-05-17 04:52:00,66.0,44.1,29.29,ESE,112,0.0,0.0,45,0.00,,,0.00,VWS V13.01,2013-05-17 09:52:00,
2013-05-17 04:57:00,66.0,44.1,29.32,ESE,112,0.0,0.0,45,0.00,,,0.00,VWS V13.01,2013-05-17 09:57:00,
2013-05-17 05:02:00,66.0,44.1,29.32,East,90,0.0,0.0,45,0.00,,,0.00,VWS V13.01,2013-05-17 10:02:00,
2013-05-17 05:07:00,66.0,44.7,29.32,East,90,0.0,0.0,46,0.00,,,0.00,VWS V13.01,2013-05-17 10:07:00,
2013-05-17 05:12:00,66.0,44.7,29.29,East,90,0.0,0.0,46,0.00,,,0.00,VWS V13.01,2013-05-17 10:12:00,
2013-05-17 05:17:00,66.0,44.7,29.29,East,90,0.0,0.0,46,0.00,,,0.00,VWS V13.01,2013-05-17 10:17:00,
2013-05-17 05:19:00,66.2,44.2,29.29,ESE,112,0.0,0.0,45,0.00,,,0.00,VWS V13.01,2013-05-17 10:19:00,
2013-05-17 05:22:00,66.2,44.2,29.29,ESE,112,0.0,0.0,45,0.00,,,0.00,VWS V13.01,2013-05-17 10:22:00,
2013-05-17 05:27:00,66.2,44.2,29.29,ESE,112,0.0,0.0,45,0.00,,,0.00,VWS V13.01,2013-05-17 10:27:00,